Pasco, WA
on Tuesday, February 5, 2013

Tuesday
Previous Day Next Day
Daily Summary
 ActualAverageRecord
Temperature
Mean Temperature °F 37°F  
Max Temperature 54°F 46°F 59°F (1991)
Min Temperature 30°F 29°F 2°F (1989)
Degree Days
Heating Degree Days 23 28  
Month to date heating degree days 130 140  
Since 1 July heating degree days 3041 3291  
Cooling Degree Days 0 0  
Month to date cooling degree days 0 0  
Year to date cooling degree days 0 0  
Moisture
Dew Point 35°F   
Average Humidity 77    
Maximum Humidity 100    
Minimum Humidity 54    
Precipitation
Precipitation T in in 0.22 in (1972)
Month to date precipitation T  
Year to date precipitation 0.36  
Snow
Snow 0.00 in in in ()
Snow Depth 0.00 in   
Wind
Wind Speed 6 mph   
Max Wind Speed 20 mph   
Max Gust Speed 24 mph   
Visibility 8 miles   
Events     

Key: T is trace of precipitation, MM is missing value
Source: NWS Daily Summary
Time(PST)TemperatureDew PointHumidity Pressure Visibility Wind DirectionWind SpeedGust SpeedPrecipitationEvents Conditions
12:53 AM 36.0°F 35.1°F 97% 29.95 in 8.0 miles WNW 5.8 mph - N/A   Unknown
1:53 AM 36.0°F 34.0°F 93% 29.96 in 9.0 miles WNW 6.9 mph - N/A   Mostly Cloudy
2:53 AM 35.1°F 34.0°F 96% 29.94 in 8.0 miles West 3.5 mph - N/A   Clear
3:53 AM 34.0°F 33.1°F 96% 29.93 in 7.0 miles SW 4.6 mph - N/A   Clear
4:53 AM 32.0°F 30.9°F 96% 29.93 in 5.0 miles Calm Calm - N/A   Clear
5:53 AM 30.0°F 28.9°F 96% 29.92 in 5.0 miles NNE 3.5 mph - N/A   Mostly Cloudy
7:53 AM 33.1°F 32.0°F 96% 29.90 in 4.0 miles SE 3.5 mph - N/A   Clear
8:53 AM 33.1°F 32.0°F 96% 29.93 in 3.0 miles North 3.5 mph - N/A   Scattered Clouds
9:53 AM 39.9°F 37.0°F 89% 29.92 in 7.0 miles North 3.5 mph - N/A   Scattered Clouds
10:53 AM 45.0°F 37.0°F 74% 29.92 in 10.0 miles SSE 3.5 mph - N/A   Scattered Clouds
11:53 AM 48.0°F 37.9°F 68% 29.90 in 10.0 miles South 3.5 mph - 0.00 in   Overcast
12:53 PM 48.9°F 39.0°F 69% 29.89 in 10.0 miles WSW 8.1 mph - 0.00 in   Overcast
1:53 PM 53.1°F 39.0°F 59% 29.88 in 10.0 miles WSW 10.4 mph - N/A   Scattered Clouds
2:53 PM 54.0°F 37.9°F 55% 29.88 in 10.0 miles Variable 5.8 mph - N/A   Clear
3:53 PM 54.0°F 37.0°F 53% 29.88 in 10.0 miles SW 19.6 mph - N/A   Clear
4:53 PM 50.0°F 37.0°F 61% 29.90 in 10.0 miles WSW 9.2 mph - N/A   Clear
5:53 PM 48.9°F 36.0°F 61% 29.90 in 10.0 miles SW 9.2 mph - N/A   Clear
6:53 PM 48.9°F 35.1°F 59% 29.92 in 10.0 miles SW 10.4 mph - N/A   Overcast
7:53 PM 46.9°F 34.0°F 61% 29.93 in 10.0 miles SW 13.8 mph - N/A   Scattered Clouds
8:53 PM 45.0°F 34.0°F 65% 29.94 in 10.0 miles WSW 3.5 mph - N/A   Scattered Clouds
9:53 PM 46.9°F 35.1°F 63% 29.95 in 10.0 miles SW 17.3 mph - N/A   Scattered Clouds
11:53 PM 44.1°F 34.0°F 68% 29.99 in 10.0 miles WSW 10.4 mph - N/A   Clear
Moon Phase
Feb. 05 Feb. 10 Feb. 17 Feb. 25 Mar. 04
Sunrise:07:13 AM (PST) Moon Rise:03:07 AM (PST)2/5
Sunset:05:07 PM (PST) Moon Set:12:23 PM (PST)2/5

Copyright © 2014 The Weather Underground, Inc.